Regional Weather Roundup
Issued by NWS

Home | Current Version | Previous Version | Graphics & Text | Print | Product List | Glossary On
Versions: 1 2 3 4 5 6 7 8 9 10 11 12 13 14 15 16 17 18 19 20 21 22 23 24 25 26 27 28 29 30 31 32 33 34 35 36 37 38 39 40 41 42 43 44 45 46 47 48 49 50
000
ASUS43 KLOT 232303
RWRIL

ILLINOIS REGIONAL WEATHER ROUNDUP
NATIONAL WEATHER SERVICE CHICAGO/ROMEOVILLE IL
600 PM CDT TUE AUG 23 2016

NOTE: "FAIR" INDICATES FEW OR NO CLOUDS BELOW 12,000 FEET WITH NO
SIGNIFICANT WEATHER AND/OR OBSTRUCTIONS TO VISIBILITY.

* THESE STATIONS ARE NOT UNDER NWS QUALITY CONTROL. THEY ALSO MAY NOT
  REPORT WEATHER SUCH AS PRECIPITATION OR FOG.

ILZ001-002-007-009-015-016-024-240000-
NORTHWEST ILLINOIS

CITY           SKY/WX    TMP DP  RH WIND       PRES   REMARKS
MOLINE         CLOUDY    77  67  71 S16       30.06F
STERLING*      PTSUNNY   77  67  71 VRB6      30.10S
SAVANNA*       PTSUNNY   78  66  66 S12       30.06F HX  80
$$

ILZ003-004-008-010-011-017-018-240000-
NORTH CENTRAL ILLINOIS

CITY           SKY/WX    TMP DP  RH WIND       PRES   REMARKS
ROCKFORD       CLOUDY    78  64  61 S14       30.11F HX  80
FREEPORT*      MOSUNNY   75  65  70 S9        30.11S
ROCHELLE*      PTSUNNY   76  66  70 S8        30.12S
$$

ILZ005-006-012>014-019>023-240000-
NORTHEAST ILLINOIS

CITY           SKY/WX    TMP DP  RH WIND       PRES   REMARKS
CHICAGO-OHARE  PTSUNNY   77  60  55 S16G23    30.13S
CHICAGO-MIDWAY PTSUNNY   80  59  48 S15G26    30.14S HX  81
AURORA         PTSUNNY   78  63  59 S12G17    30.13F HX  80
LANSING*       MOSUNNY   76  61  60 S8        30.16S
JOLIET*        MOSUNNY   80  65  60 S9        30.14F HX  82
WAUKEGAN       MOSUNNY   80  60  50 S13       30.11F HX  81
DUPAGE AIRPORT MOSUNNY   78  61  55 S16       30.13F HX  80
KANKAKEE*      PTSUNNY   78  64  62 S7        30.17S
WHEELING       CLOUDY    79  59  50 S14       30.14S HX  80
MORRIS*        CLOUDY    77  65  64 S8        30.12F
ROMEOVILLE*    PTSUNNY   77  61  58 S10       30.14S
NORTHERLY ISL    N/A     78  57  48 S10         N/A
$$

LMZ740>746-240000-
SOUTHERN LAKE MICHIGAN

STATION/POSITION SKY/WX   TEMP    WIND        PRES    VSBY  WAVE
                          AIR SEA DIR/SP/G                  HT/PER
                          (F)     (DEG/KT/KT) (MB)    (MI)  (FT/S)
SOUTHERN BUOY              75 75  160/ 16/ 19 1020.1          3/ 4
WILMETTE HARBOR            75 71  180/ 12/ 16   N/A           2/ 3
HARRISON CRIB              77     170/ 16/ 17   N/A
BURNHAM HARBOR             78     190/ 12/ 17   N/A
CALUMET HARBOR             79                 1020.4F
BURNS HARBOR               79     190/ 11/ 21 1021.3F
MICHIGAN CITY              78     180/ 12/ 15   N/A
MICHIGAN CITY 6N           77 74  190/ 12/ 16   N/A           2/ 2
ST. JOSEPH                 77 75  180/ 12/ 14 1021.2S         2/ 3
$$

ILZ025>027-034>036-040-047-049-050-058-095>099-240000-
WEST-CENTRAL ILLINOIS

CITY           SKY/WX    TMP DP  RH WIND       PRES   REMARKS
QUINCY         CLOUDY    75  72  90 S13       30.07F
GALESBURG*     CLOUDY    74  67  79 S10       30.09F
MACOMB*        CLOUDY    73  69  86 S12       30.10F
JACKSONVILLE*  CLOUDY    74  68  80 SE9       30.10F
PITTSFIELD*    CLOUDY    76  71  85 SE6       30.09F
$$

ILZ028>032-037-038-041>044-048-051>054-059>061-240000-
CENTRAL ILLINOIS

CITY           SKY/WX    TMP DP  RH WIND       PRES   REMARKS
PONTIAC        CLOUDY    78  68  72 S13       30.15S HX  80
BLOOMINGTON    CLOUDY    75  66  73 S10       30.15F
DECATUR        CLOUDY    76  66  71 S7        30.15F
PEORIA         CLOUDY    76  66  71 S14       30.11F
LACON*         CLOUDY    77  65  66 S10       30.10F
LINCOLN*       CLOUDY    75  68  77 S8        30.13F
SPRINGFIELD    CLOUDY    76  67  73 S12       30.12F
TAYLORVILLE    CLOUDY    73  67  80 SE7       30.14F
$$

ILZ033-039-045-046-055>057-062-063-240000-
EAST-CENTRAL ILLINOIS

CITY           SKY/WX    TMP DP  RH WIND       PRES   REMARKS
CHAMPAIGN      CLOUDY    75  67  76 S7        30.17F
RANTOUL*       CLOUDY    78  68  72 S6        30.16F HX  80
MATTOON        CLOUDY    76  66  71 S6        30.17F
PARIS*         CLOUDY    75  67  77 S3        30.18F
$$

ILZ079-100>102-240000-
SOUTHWEST ILLINOIS

CITY           SKY/WX    TMP DP  RH WIND       PRES   REMARKS
ALTON          CLOUDY    73  68  83 SE9       30.12F
BELLEVILLE     CLOUDY    76  69  78 SE5       30.13R
CAHOKIA*       CLOUDY    77  69  76 SE8       30.11F
SPARTA*        CLOUDY    75  70  85 SE5       30.15F
$$

ILZ064>066-069>071-074>076-080>082-084>086-088>090-092>094-240000-
SOUTH-CENTRAL ILLINOIS

CITY           SKY/WX    TMP DP  RH WIND       PRES   REMARKS
CARBONDALE     CLOUDY    79  71  76 S6        30.15S HX  82
EFFINGHAM*     CLOUDY    76  69  77 SE5       30.18F
MARION         PTSUNNY   81  72  74 SE9       30.16F HX  84
MT. VERNON     CLOUDY    75  64  69 SE3       30.18S
CENTRALIA*     CLOUDY    75  69  81 SE6       30.15F
SALEM*         CLOUDY    77  67  72 SE7       30.16F
$$

ILZ067-068-072-073-078-083-087-091-240000-
SOUTHEAST ILLINOIS

CITY           SKY/WX    TMP DP  RH WIND       PRES   REMARKS
LAWRENCEVILLE  MOSUNNY   78  67  68 S6        30.19S HX  80
FLORA*         CLOUDY    78  70  76 SE3       30.18F HX  80
FAIRFIELD*     CLOUDY    76  69  78 CALM      30.17S
HARRISBURG*    CLOUDY    78  72  82 SE6       30.17F
ROBINSON*      CLOUDY    76  69  78 CALM      30.19S
CARMI*         CLOUDY    78  68  72 SE5       30.17F HX  80
$$

ABBREVIATIONS USED IN REMARKS
   TC - TEMPERATURE IN CELSIUS
  WCI - WIND CHILL INDEX
   HX - HEAT INDEX
  VSB - VISIBILITY
$$





USA.gov is the U.S. government's official web portal to all federal, state and local government web resources and services.